START_TIME,STEP,MOV.,AL01,t_acc.,AL02,t_acc.,E37,t_acc.,H21,t_acc.
1979-03-07 12:00:32.060 ,2,1,1.,24.0,0.,24.0,7.,24.0,0.,24.0
1979-03-07 12:00:56.060 ,6,1,0.,24.0,0.,24.0,10.,24.0,0.,24.0
1979-03-07 12:01:20.060 ,5,1,1.,24.0,0.,24.0,10.,24.0,0.,24.0
1979-03-07 12:01:44.060 ,1,1,0.,24.0,0.,24.0,6.,24.0,0.,24.0
1979-03-07 12:02:08.060 ,2,1,0.,24.0,0.,24.0,10.,24.0,0.,24.0
1979-03-07 12:02:32.060 ,6,1,1.,24.0,0.,24.0,6.,24.0,0.,24.0
1979-03-07 12:02:56.060 ,5,1,4.,24.0,0.,24.0,7.,24.0,0.,24.0
1979-03-07 12:03:20.060 ,1,1,0.,24.0,1.,24.0,9.,24.0,0.,24.0
1979-03-07 12:03:44.060 ,2,1,0.,24.0,0.,24.0,6.,24.0,0.,24.0
1979-03-07 12:04:08.060 ,6,1,2.,24.0,1.,24.0,7.,24.0,0.,24.0
1979-03-07 12:04:32.060 ,5,1,0.,24.0,0.,24.0,6.,24.0,0.,24.0
1979-03-07 12:04:56.060 ,1,1,0.,24.0,0.,24.0,6.,24.0,0.,24.0
1979-03-07 12:05:20.060 ,2,1,0.,24.0,0.,24.0,9.,24.0,0.,24.0
1979-03-07 12:05:44.060 ,6,1,1.,24.0,0.,24.0,12.,24.0,0.,24.0
1979-03-07 12:06:08.060 ,5,1,3.,24.0,1.,24.0,9.,24.0,0.,24.0
1979-03-07 12:06:32.060 ,1,1,2.,24.0,1.,24.0,7.,24.0,0.,24.0
1979-03-07 12:06:56.060 ,2,1,0.,24.0,0.,24.0,11.,24.0,0.,24.0
1979-03-07 12:07:20.060 ,6,1,0.,24.0,1.,24.0,8.,24.0,0.,24.0
1979-03-07 12:07:44.060 ,5,1,3.,24.0,0.,24.0,11.,24.0,0.,24.0
1979-03-07 12:08:08.060 ,1,1,1.,24.0,1.,24.0,10.,24.0,0.,24.0
1979-03-07 12:08:32.060 ,2,1,0.,24.0,0.,24.0,10.,24.0,0.,24.0
1979-03-07 12:08:56.060 ,6,1,2.,24.0,0.,24.0,8.,24.0,0.,24.0
1979-03-07 12:09:20.060 ,5,1,3.,24.0,0.,24.0,9.,24.0,0.,24.0
1979-03-07 12:09:44.060 ,1,1,4.,24.0,1.,24.0,10.,24.0,0.,24.0
1979-03-07 12:10:08.060 ,2,1,1.,24.0,0.,24.0,15.,24.0,0.,24.0
1979-03-07 12:10:32.060 ,6,1,4.,24.0,0.,24.0,19.,24.0,0.,24.0
1979-03-07 12:10:56.060 ,5,1,2.,24.0,0.,24.0,19.,24.0,0.,24.0
1979-03-07 12:11:20.060 ,1,1,2.,24.0,2.,24.0,14.,24.0,0.,24.0
1979-03-07 12:11:44.060 ,2,1,2.,24.0,0.,24.0,11.,24.0,0.,24.0
1979-03-07 12:12:08.060 ,6,1,1.,24.0,2.,24.0,7.,24.0,0.,24.0
1979-03-07 12:12:32.060 ,5,1,7.,24.0,0.,24.0,19.,24.0,0.,24.0
1979-03-07 12:12:56.060 ,1,1,1.,24.0,0.,24.0,11.,24.0,0.,24.0
1979-03-07 12:13:20.060 ,2,1,1.,24.0,0.,24.0,8.,24.0,0.,24.0
1979-03-07 12:13:44.060 ,6,1,4.,24.0,1.,24.0,13.,24.0,0.,24.0
1979-03-07 12:14:08.060 ,5,1,8.,24.0,0.,24.0,13.,24.0,0.,24.0
1979-03-07 12:14:32.060 ,1,1,6.,24.0,2.,24.0,21.,24.0,0.,24.0
1979-03-07 12:14:56.060 ,2,1,4.,24.0,0.,24.0,12.,24.0,0.,24.0
1979-03-07 12:15:20.060 ,6,1,4.,24.0,2.,24.0,16.,24.0,0.,24.0
1979-03-07 12:15:44.060 ,5,1,7.,24.0,2.,24.0,21.,24.0,0.,24.0
1979-03-07 12:16:08.060 ,1,1,2.,24.0,4.,24.0,18.,24.0,0.,24.0
1979-03-07 12:16:32.060 ,2,1,2.,24.0,0.,24.0,25.,24.0,0.,24.0
1979-03-07 12:16:56.060 ,6,1,7.,24.0,3.,24.0,26.,24.0,0.,24.0
1979-03-07 12:17:20.060 ,5,1,5.,24.0,0.,24.0,33.,24.0,0.,24.0
1979-03-07 12:17:44.060 ,1,1,4.,24.0,4.,24.0,29.,24.0,0.,24.0
1979-03-07 12:18:08.060 ,2,1,1.,24.0,0.,24.0,24.,24.0,0.,24.0
1979-03-07 12:18:32.060 ,6,1,7.,24.0,1.,24.0,23.,24.0,0.,24.0
1979-03-07 12:18:56.060 ,5,1,9.,24.0,1.,24.0,28.,24.0,0.,24.0
1979-03-07 12:19:20.060 ,1,1,6.,24.0,1.,24.0,15.,24.0,0.,24.0
1979-03-07 12:19:44.060 ,2,1,1.,24.0,0.,24.0,20.,24.0,0.,24.0
1979-03-07 12:20:08.060 ,6,1,8.,24.0,2.,24.0,23.,24.0,0.,24.0
1979-03-07 12:20:32.060 ,5,1,8.,24.0,1.,24.0,12.,24.0,0.,24.0
1979-03-07 12:20:56.060 ,1,1,7.,24.0,2.,24.0,17.,24.0,0.,24.0
1979-03-07 12:21:20.060 ,2,1,3.,24.0,0.,24.0,14.,24.0,0.,24.0
1979-03-07 12:21:44.060 ,6,1,4.,24.0,5.,24.0,19.,24.0,0.,24.0
1979-03-07 12:22:08.060 ,5,1,7.,24.0,1.,24.0,40.,24.0,0.,24.0
1979-03-07 12:22:32.060 ,1,1,1.,24.0,2.,24.0,31.,24.0,0.,24.0
1979-03-07 12:22:56.060 ,2,1,6.,24.0,1.,24.0,30.,24.0,0.,24.0
1979-03-07 12:23:20.060 ,6,1,6.,24.0,4.,24.0,36.,24.0,0.,24.0
1979-03-07 12:23:44.060 ,5,1,4.,24.0,0.,24.0,31.,24.0,0.,24.0
1979-03-07 12:24:08.060 ,1,1,4.,24.0,2.,24.0,24.,24.0,0.,24.0
1979-03-07 12:24:32.060 ,2,1,2.,24.0,0.,24.0,23.,24.0,0.,24.0
1979-03-07 12:24:56.060 ,6,1,11.,24.0,4.,24.0,32.,24.0,0.,24.0
1979-03-07 12:25:20.060 ,5,1,8.,24.0,0.,24.0,35.,24.0,0.,24.0
1979-03-07 12:25:44.060 ,1,1,6.,24.0,0.,24.0,30.,24.0,0.,24.0
1979-03-07 12:26:08.060 ,2,1,2.,24.0,0.,24.0,34.,24.0,0.,24.0
1979-03-07 12:26:32.060 ,6,1,9.,24.0,0.,24.0,21.,24.0,0.,24.0
1979-03-07 12:26:56.060 ,5,1,12.,24.0,0.,24.0,37.,24.0,0.,24.0
1979-03-07 12:27:20.060 ,1,1,6.,24.0,0.,24.0,32.,24.0,0.,24.0
1979-03-07 12:27:44.060 ,2,1,1.,24.0,0.,24.0,35.,24.0,0.,24.0
1979-03-07 12:28:08.060 ,6,1,4.,24.0,3.,24.0,28.,24.0,0.,24.0
1979-03-07 12:28:32.060 ,5,1,6.,24.0,1.,24.0,40.,24.0,0.,24.0
1979-03-07 12:28:56.060 ,1,1,9.,24.0,3.,24.0,30.,24.0,0.,24.0
1979-03-07 12:29:20.060 ,2,1,3.,24.0,1.,24.0,46.,24.0,0.,24.0
1979-03-07 12:29:44.060 ,6,1,5.,24.0,3.,24.0,34.,24.0,0.,24.0
1979-03-07 12:30:08.060 ,5,1,6.,24.0,1.,24.0,56.,24.0,0.,24.0
1979-03-07 12:30:32.060 ,1,1,7.,24.0,3.,24.0,40.,24.0,0.,24.0
1979-03-07 12:30:56.060 ,2,1,2.,24.0,0.,24.0,37.,24.0,0.,24.0
1979-03-07 12:31:20.060 ,6,1,3.,24.0,1.,24.0,34.,24.0,0.,24.0
1979-03-07 12:31:44.060 ,5,1,10.,24.0,0.,24.0,39.,24.0,0.,24.0
1979-03-07 12:32:08.060 ,1,1,1.,24.0,2.,24.0,31.,24.0,0.,24.0
1979-03-07 12:32:32.060 ,2,1,3.,24.0,3.,24.0,44.,24.0,0.,24.0
1979-03-07 12:32:56.060 ,6,1,2.,24.0,1.,24.0,33.,24.0,0.,24.0
1979-03-07 12:33:20.060 ,5,1,8.,24.0,0.,24.0,42.,24.0,0.,24.0
1979-03-07 12:33:44.060 ,1,1,4.,24.0,1.,24.0,37.,24.0,0.,24.0
1979-03-07 12:34:08.060 ,2,1,1.,24.0,0.,24.0,49.,24.0,0.,24.0
1979-03-07 12:34:32.060 ,6,1,3.,24.0,0.,24.0,27.,24.0,0.,24.0
1979-03-07 12:34:56.060 ,5,1,12.,24.0,0.,24.0,45.,24.0,0.,24.0
1979-03-07 12:35:20.060 ,1,1,9.,24.0,0.,24.0,33.,24.0,0.,24.0
1979-03-07 12:35:44.060 ,2,1,0.,24.0,1.,24.0,37.,24.0,0.,24.0
1979-03-07 12:36:08.060 ,6,1,6.,24.0,1.,24.0,41.,24.0,0.,24.0
1979-03-07 12:36:32.060 ,5,1,4.,24.0,0.,24.0,32.,24.0,0.,24.0
1979-03-07 12:36:56.060 ,1,1,6.,24.0,1.,24.0,28.,24.0,0.,24.0
1979-03-07 12:37:20.060 ,2,1,0.,24.0,0.,24.0,24.,24.0,0.,24.0
1979-03-07 12:37:44.060 ,6,1,3.,24.0,1.,24.0,35.,24.0,0.,24.0
1979-03-07 12:38:08.060 ,5,1,9.,24.0,0.,24.0,33.,24.0,0.,24.0
1979-03-07 12:38:32.060 ,0,0,4.,24.0,0.,24.0,35.,24.0,0.,24.0
1979-03-07 12:38:56.060 ,1,1,3.,24.0,2.,24.0,33.,24.0,0.,24.0
1979-03-07 12:39:20.060 ,0,1,4.,24.0,1.,24.0,28.,24.0,0.,24.0
1979-03-07 12:39:44.060 ,0,1,0.,24.0,2.,24.0,38.,24.0,0.,24.0
1979-03-07 12:40:08.060 ,1,1,1.,24.0,1.,24.0,36.,24.0,0.,24.0
1979-03-07 12:40:32.060 ,2,1,6.,24.0,2.,24.0,46.,24.0,0.,24.0
1979-03-07 12:40:56.060 ,3,1,4.,24.0,0.,24.0,21.,24.0,0.,24.0
1979-03-07 12:41:20.060 ,4,1,3.,24.0,1.,24.0,33.,24.0,0.,24.0
1979-03-07 12:41:44.060 ,5,1,3.,24.0,2.,24.0,37.,24.0,0.,24.0
1979-03-07 12:42:08.060 ,6,1,2.,24.0,1.,24.0,37.,24.0,0.,24.0
1979-03-07 12:42:32.060 ,7,1,7.,24.0,1.,24.0,40.,24.0,0.,24.0
1979-03-07 12:42:56.060 ,7,1,10.,24.0,0.,24.0,33.,24.0,0.,24.0
1979-03-07 12:43:20.060 ,6,1,8.,24.0,0.,24.0,50.,24.0,0.,24.0
1979-03-07 12:43:44.060 ,5,1,4.,24.0,0.,24.0,48.,24.0,0.,24.0
1979-03-07 12:44:08.060 ,0,0,7.,24.0,3.,24.0,55.,24.0,0.,24.0
1979-03-07 12:44:32.060 ,0,0,,0,,0,,0,,0
1979-03-07 12:44:32.060 ,0,0,,0,,0,,0,,0
1979-03-07 12:44:32.060 ,0,0,,0,,0,,0,,0
1979-03-07 12:44:32.660 ,0,0,2.,24.0,2.,24.0,41.,24.0,0.,24.0
1979-03-07 12:44:56.060 ,2,1,9.,24.0,2.,24.0,28.,24.0,0.,24.0
1979-03-07 12:45:20.060 ,1,1,5.,24.0,1.,24.0,35.,24.0,0.,24.0
1979-03-07 12:45:44.060 ,0,1,4.,24.0,1.,24.0,27.,24.0,0.,24.0
1979-03-07 12:46:08.060 ,0,1,1.,24.0,3.,24.0,39.,24.0,0.,24.0
1979-03-07 12:46:32.060 ,1,1,1.,24.0,1.,24.0,27.,24.0,0.,24.0
1979-03-07 12:46:56.060 ,2,1,2.,24.0,2.,24.0,32.,24.0,0.,24.0
1979-03-07 12:47:20.060 ,3,1,7.,24.0,0.,24.0,33.,24.0,0.,24.0
1979-03-07 12:47:44.060 ,4,1,2.,24.0,3.,24.0,34.,24.0,0.,24.0
1979-03-07 12:48:08.060 ,5,1,5.,24.0,3.,24.0,47.,24.0,0.,24.0
1979-03-07 12:48:32.060 ,6,1,2.,24.0,4.,24.0,41.,24.0,0.,24.0
1979-03-07 12:48:56.060 ,7,1,6.,24.0,0.,24.0,56.,24.0,0.,24.0
1979-03-07 12:49:20.060 ,7,1,11.,24.0,0.,24.0,42.,24.0,0.,24.0
1979-03-07 12:49:44.060 ,6,1,6.,24.0,0.,24.0,48.,24.0,0.,24.0
1979-03-07 12:50:08.060 ,5,1,5.,24.0,0.,24.0,52.,24.0,0.,24.0
1979-03-07 12:50:32.060 ,4,1,3.,24.0,1.,24.0,50.,24.0,0.,24.0
1979-03-07 12:50:56.060 ,3,1,7.,24.0,1.,24.0,47.,24.0,0.,24.0
1979-03-07 12:51:20.060 ,2,1,4.,24.0,2.,24.0,36.,24.0,0.,24.0
1979-03-07 12:51:44.060 ,1,1,2.,24.0,1.,24.0,60.,24.0,0.,24.0
1979-03-07 12:52:08.060 ,0,1,2.,24.0,1.,24.0,60.,24.0,0.,24.0
1979-03-07 12:52:32.060 ,0,1,2.,24.0,1.,24.0,49.,24.0,0.,24.0
1979-03-07 12:52:56.060 ,1,1,1.,24.0,0.,24.0,59.,24.0,0.,24.0
1979-03-07 12:53:20.060 ,2,1,10.,24.0,0.,24.0,51.,24.0,0.,24.0
1979-03-07 12:53:44.060 ,3,1,3.,24.0,3.,24.0,39.,24.0,0.,24.0
1979-03-07 12:54:08.060 ,4,1,7.,24.0,1.,24.0,37.,24.0,0.,24.0
1979-03-07 12:54:32.060 ,5,1,2.,24.0,3.,24.0,55.,24.0,0.,24.0
1979-03-07 12:54:56.060 ,6,1,2.,24.0,0.,24.0,56.,24.0,0.,24.0
1979-03-07 12:55:20.060 ,7,1,3.,24.0,0.,24.0,54.,24.0,0.,24.0
1979-03-07 12:55:44.060 ,7,1,9.,24.0,0.,24.0,50.,24.0,0.,24.0
1979-03-07 12:56:08.060 ,6,1,5.,24.0,0.,24.0,60.,24.0,0.,24.0
1979-03-07 12:56:32.060 ,5,1,1.,24.0,0.,24.0,55.,24.0,0.,24.0
1979-03-07 12:56:56.060 ,4,1,6.,24.0,2.,24.0,59.,24.0,0.,24.0
1979-03-07 12:57:20.060 ,3,1,4.,24.0,0.,24.0,40.,24.0,0.,24.0
1979-03-07 12:57:44.060 ,2,1,3.,24.0,2.,24.0,35.,24.0,0.,24.0
1979-03-07 12:58:08.060 ,1,1,2.,24.0,0.,24.0,52.,24.0,0.,24.0
1979-03-07 12:58:32.060 ,0,1,2.,24.0,2.,24.0,51.,24.0,0.,24.0
1979-03-07 12:58:56.060 ,0,1,1.,24.0,0.,24.0,61.,24.0,0.,24.0
1979-03-07 12:59:20.060 ,1,1,0.,24.0,0.,24.0,37.,24.0,0.,24.0
1979-03-07 12:59:44.060 ,2,1,4.,24.0,0.,24.0,51.,24.0,0.,24.0
1979-03-07 13:00:08.060 ,3,1,6.,24.0,1.,24.0,42.,24.0,0.,24.0
1979-03-07 13:00:32.070 ,4,1,5.,24.0,2.,24.0,33.,24.0,0.,24.0
1979-03-07 13:00:56.070 ,5,1,4.,24.0,2.,24.0,32.,24.0,0.,24.0
1979-03-07 13:01:20.070 ,6,1,5.,24.0,1.,24.0,49.,24.0,0.,24.0
1979-03-07 13:01:44.070 ,7,1,5.,24.0,0.,24.0,56.,24.0,0.,24.0
1979-03-07 13:02:08.070 ,7,1,8.,24.0,0.,24.0,41.,24.0,0.,24.0
1979-03-07 13:02:32.070 ,6,1,2.,24.0,0.,24.0,32.,24.0,0.,24.0
1979-03-07 13:02:56.070 ,5,1,3.,24.0,2.,24.0,59.,24.0,0.,24.0
1979-03-07 13:03:20.070 ,4,1,5.,24.0,1.,24.0,52.,24.0,0.,24.0
1979-03-07 13:03:44.070 ,3,1,3.,24.0,2.,24.0,37.,24.0,0.,24.0
1979-03-07 13:04:08.070 ,2,1,3.,24.0,2.,24.0,31.,24.0,0.,24.0
1979-03-07 13:04:32.070 ,1,1,6.,24.0,1.,24.0,38.,24.0,0.,24.0
1979-03-07 13:04:56.070 ,0,1,2.,24.0,2.,24.0,34.,24.0,0.,24.0
1979-03-07 13:05:20.070 ,0,1,2.,24.0,1.,24.0,42.,24.0,0.,24.0
1979-03-07 13:05:44.070 ,1,1,1.,24.0,1.,24.0,43.,24.0,0.,24.0
1979-03-07 13:06:08.070 ,2,1,0.,24.0,0.,24.0,42.,24.0,0.,24.0
1979-03-07 13:06:32.070 ,3,1,3.,24.0,1.,24.0,32.,24.0,0.,24.0
1979-03-07 13:06:56.070 ,4,1,2.,24.0,1.,24.0,30.,24.0,0.,24.0
1979-03-07 13:07:20.070 ,5,1,3.,24.0,1.,24.0,27.,24.0,0.,24.0
1979-03-07 13:07:44.070 ,6,1,4.,24.0,2.,24.0,32.,24.0,0.,24.0
1979-03-07 13:08:08.070 ,7,1,1.,24.0,1.,24.0,35.,24.0,0.,24.0
1979-03-07 13:08:32.070 ,7,1,8.,24.0,0.,24.0,39.,24.0,0.,24.0
1979-03-07 13:08:56.070 ,6,1,11.,24.0,0.,24.0,45.,24.0,0.,24.0
1979-03-07 13:09:20.070 ,5,1,0.,24.0,0.,24.0,28.,24.0,0.,24.0
1979-03-07 13:09:44.070 ,4,1,2.,24.0,3.,24.0,26.,24.0,0.,24.0
1979-03-07 13:10:08.070 ,3,1,3.,24.0,0.,24.0,33.,24.0,0.,24.0
1979-03-07 13:10:32.070 ,2,1,0.,24.0,0.,24.0,21.,24.0,0.,24.0
1979-03-07 13:10:56.070 ,1,1,1.,24.0,0.,24.0,31.,24.0,0.,24.0
1979-03-07 13:11:20.070 ,0,1,1.,24.0,0.,24.0,19.,24.0,0.,24.0
1979-03-07 13:11:44.070 ,0,1,1.,24.0,1.,24.0,42.,24.0,0.,24.0
1979-03-07 13:12:08.070 ,1,1,0.,24.0,1.,24.0,24.,24.0,0.,24.0
1979-03-07 13:12:32.070 ,2,1,1.,24.0,3.,24.0,32.,24.0,0.,24.0
1979-03-07 13:12:56.070 ,3,1,1.,24.0,0.,24.0,20.,24.0,0.,24.0
1979-03-07 13:13:20.070 ,4,1,5.,24.0,0.,24.0,17.,24.0,0.,24.0
1979-03-07 13:13:44.070 ,5,1,2.,24.0,0.,24.0,32.,24.0,0.,24.0
1979-03-07 13:14:08.070 ,6,1,1.,24.0,0.,24.0,39.,24.0,0.,24.0
1979-03-07 13:14:32.070 ,7,1,4.,24.0,0.,24.0,31.,24.0,0.,24.0
1979-03-07 13:14:56.070 ,7,1,11.,24.0,0.,24.0,32.,24.0,0.,24.0
1979-03-07 13:15:20.070 ,6,1,7.,24.0,0.,24.0,43.,24.0,0.,24.0
1979-03-07 13:15:44.070 ,0,0,2.,24.0,0.,24.0,44.,24.0,0.,24.0
1979-03-07 13:17:39.870 ,0,0,,0,,0,,0,,0
1979-03-07 13:17:44.070 ,0,1,0.,24.0,0.,24.0,13.,24.0,0.,24.0
1979-03-07 13:18:08.070 ,0,1,0.,24.0,0.,24.0,19.,24.0,0.,24.0
1979-03-07 13:18:32.070 ,1,1,1.,24.0,0.,24.0,15.,24.0,0.,24.0
1979-03-07 13:18:56.070 ,2,1,1.,24.0,0.,24.0,12.,24.0,0.,24.0
1979-03-07 13:19:20.070 ,3,1,2.,24.0,0.,24.0,9.,24.0,0.,24.0
1979-03-07 13:19:44.070 ,4,1,1.,24.0,1.,24.0,12.,24.0,0.,24.0
1979-03-07 13:20:08.070 ,5,1,1.,24.0,0.,24.0,19.,24.0,0.,24.0
1979-03-07 13:20:32.070 ,6,1,3.,24.0,0.,24.0,12.,24.0,0.,24.0
1979-03-07 13:20:56.070 ,7,1,3.,24.0,1.,24.0,11.,24.0,0.,24.0
1979-03-07 13:21:20.070 ,7,1,12.,24.0,0.,24.0,21.,24.0,0.,24.0
1979-03-07 13:21:44.070 ,6,1,7.,24.0,0.,24.0,15.,24.0,0.,24.0
1979-03-07 13:22:08.070 ,5,1,0.,24.0,0.,24.0,16.,24.0,0.,24.0
1979-03-07 13:22:32.070 ,4,1,3.,24.0,0.,24.0,17.,24.0,0.,24.0
1979-03-07 13:22:56.070 ,3,1,0.,24.0,0.,24.0,11.,24.0,0.,24.0
1979-03-07 13:23:20.070 ,2,1,2.,24.0,1.,24.0,14.,24.0,0.,24.0
1979-03-07 13:23:44.070 ,1,1,0.,24.0,0.,24.0,13.,24.0,0.,24.0
1979-03-07 13:24:08.070 ,0,1,0.,24.0,0.,24.0,14.,24.0,0.,24.0
1979-03-07 13:24:32.070 ,0,1,0.,24.0,0.,24.0,14.,24.0,0.,24.0
1979-03-07 13:24:56.070 ,1,1,0.,24.0,0.,24.0,14.,24.0,0.,24.0
1979-03-07 13:25:20.070 ,2,1,0.,24.0,0.,24.0,20.,24.0,0.,24.0
1979-03-07 13:25:44.070 ,3,1,1.,24.0,0.,24.0,15.,24.0,0.,24.0
1979-03-07 13:26:08.070 ,4,1,4.,24.0,0.,24.0,9.,24.0,0.,24.0
1979-03-07 13:26:32.070 ,5,1,1.,24.0,0.,24.0,11.,24.0,0.,24.0
1979-03-07 13:26:56.070 ,6,1,0.,24.0,0.,24.0,17.,24.0,0.,24.0
1979-03-07 13:27:20.070 ,7,1,1.,24.0,0.,24.0,9.,24.0,0.,24.0
1979-03-07 13:27:44.070 ,7,1,11.,24.0,0.,24.0,7.,24.0,0.,24.0
1979-03-07 13:28:08.070 ,6,1,6.,24.0,0.,24.0,12.,24.0,0.,24.0
1979-03-07 13:28:32.070 ,5,1,0.,24.0,1.,24.0,14.,24.0,0.,24.0
1979-03-07 13:28:56.070 ,4,1,1.,24.0,0.,24.0,9.,24.0,0.,24.0
1979-03-07 13:29:20.070 ,3,1,1.,24.0,0.,24.0,13.,24.0,0.,24.0
1979-03-07 13:29:44.070 ,2,1,0.,24.0,0.,24.0,11.,24.0,0.,24.0
1979-03-07 13:30:08.070 ,1,1,0.,24.0,0.,24.0,6.,24.0,0.,24.0
1979-03-07 13:30:32.070 ,0,1,0.,24.0,0.,24.0,4.,24.0,0.,24.0
1979-03-07 13:30:56.070 ,0,1,0.,24.0,0.,24.0,7.,24.0,0.,24.0
1979-03-07 13:31:20.070 ,1,1,0.,24.0,0.,24.0,8.,24.0,0.,24.0
1979-03-07 13:31:44.070 ,2,1,0.,24.0,0.,24.0,10.,24.0,0.,24.0
1979-03-07 13:32:08.070 ,3,1,0.,24.0,0.,24.0,4.,24.0,0.,24.0
1979-03-07 13:32:32.070 ,4,1,0.,24.0,0.,24.0,5.,24.0,0.,24.0
1979-03-07 13:32:56.070 ,5,1,0.,24.0,0.,24.0,10.,24.0,0.,24.0
1979-03-07 13:33:20.070 ,6,1,1.,24.0,0.,24.0,11.,24.0,0.,24.0
1979-03-07 13:33:44.070 ,7,1,2.,24.0,0.,24.0,4.,24.0,0.,24.0
1979-03-07 13:34:08.070 ,7,1,7.,24.0,0.,24.0,9.,24.0,0.,24.0
1979-03-07 13:34:32.070 ,6,1,5.,24.0,0.,24.0,6.,24.0,0.,24.0
1979-03-07 13:34:56.070 ,5,1,0.,24.0,0.,24.0,8.,24.0,0.,24.0
1979-03-07 13:35:20.070 ,4,1,0.,24.0,0.,24.0,5.,24.0,0.,24.0
1979-03-07 13:35:44.070 ,3,1,0.,24.0,0.,24.0,7.,24.0,0.,24.0
1979-03-07 13:36:08.070 ,2,1,1.,24.0,0.,24.0,6.,24.0,0.,24.0
1979-03-07 13:36:32.070 ,1,1,0.,24.0,0.,24.0,7.,24.0,0.,24.0
1979-03-07 13:36:56.070 ,0,1,0.,24.0,0.,24.0,8.,24.0,0.,24.0
1979-03-07 13:37:20.070 ,0,1,0.,24.0,0.,24.0,8.,24.0,0.,24.0
1979-03-07 13:37:44.070 ,1,1,0.,24.0,0.,24.0,4.,24.0,0.,24.0
1979-03-07 13:38:08.070 ,2,1,1.,24.0,0.,24.0,9.,24.0,0.,24.0
1979-03-07 13:38:32.070 ,3,1,0.,24.0,0.,24.0,2.,24.0,0.,24.0
1979-03-07 13:38:56.070 ,4,1,0.,24.0,0.,24.0,1.,24.0,0.,24.0
1979-03-07 13:39:20.070 ,5,1,0.,24.0,0.,24.0,9.,24.0,0.,24.0
1979-03-07 13:39:44.070 ,6,1,0.,24.0,0.,24.0,4.,24.0,0.,24.0
1979-03-07 13:40:08.070 ,7,1,1.,24.0,0.,24.0,10.,24.0,0.,24.0
1979-03-07 13:40:32.070 ,7,1,7.,24.0,0.,24.0,1.,24.0,0.,24.0
1979-03-07 13:40:56.070 ,6,1,9.,24.0,0.,24.0,7.,24.0,0.,24.0
1979-03-07 13:41:20.070 ,5,1,0.,24.0,0.,24.0,1.,24.0,0.,24.0
1979-03-07 13:41:44.070 ,4,1,0.,24.0,0.,24.0,2.,24.0,0.,24.0
1979-03-07 13:42:08.070 ,3,1,0.,24.0,0.,24.0,6.,24.0,0.,24.0
1979-03-07 13:42:32.070 ,2,1,0.,24.0,0.,24.0,4.,24.0,0.,24.0
1979-03-07 13:42:56.070 ,1,1,0.,24.0,0.,24.0,3.,24.0,0.,24.0
1979-03-07 13:43:20.070 ,0,1,0.,24.0,0.,24.0,5.,24.0,0.,24.0
1979-03-07 13:43:44.070 ,0,1,0.,24.0,0.,24.0,4.,24.0,0.,24.0
1979-03-07 13:44:08.070 ,1,1,0.,24.0,0.,24.0,6.,24.0,0.,24.0
1979-03-07 13:44:32.070 ,2,1,0.,24.0,0.,24.0,5.,24.0,0.,24.0
1979-03-07 13:44:56.070 ,3,1,2.,24.0,0.,24.0,1.,24.0,0.,24.0
1979-03-07 13:45:20.070 ,4,1,0.,24.0,0.,24.0,1.,24.0,0.,24.0
1979-03-07 13:45:44.070 ,5,1,0.,24.0,0.,24.0,2.,24.0,0.,24.0
1979-03-07 13:46:08.070 ,6,1,0.,24.0,0.,24.0,2.,24.0,0.,24.0
1979-03-07 13:46:32.070 ,7,1,3.,24.0,0.,24.0,9.,24.0,0.,24.0
1979-03-07 13:46:56.070 ,7,1,15.,24.0,0.,24.0,4.,24.0,0.,24.0
1979-03-07 13:47:20.070 ,6,1,9.,24.0,0.,24.0,7.,24.0,0.,24.0
1979-03-07 13:47:44.070 ,5,1,0.,24.0,0.,24.0,6.,24.0,0.,24.0
1979-03-07 13:48:08.070 ,4,1,0.,24.0,0.,24.0,6.,24.0,0.,24.0
1979-03-07 13:48:32.070 ,3,1,0.,24.0,0.,24.0,3.,24.0,0.,24.0
1979-03-07 13:48:56.070 ,2,1,0.,24.0,0.,24.0,3.,24.0,0.,24.0
1979-03-07 13:49:20.070 ,1,1,0.,24.0,0.,24.0,6.,24.0,0.,24.0
1979-03-07 13:49:44.070 ,0,1,0.,24.0,0.,24.0,6.,24.0,0.,24.0
1979-03-07 13:50:08.070 ,0,1,0.,24.0,0.,24.0,10.,24.0,0.,24.0
1979-03-07 13:50:32.070 ,1,1,0.,24.0,0.,24.0,2.,24.0,0.,24.0
1979-03-07 13:50:56.070 ,2,1,0.,24.0,0.,24.0,1.,24.0,0.,24.0
1979-03-07 13:51:20.070 ,3,1,0.,24.0,0.,24.0,7.,24.0,0.,24.0
1979-03-07 13:51:44.070 ,4,1,0.,24.0,0.,24.0,3.,24.0,0.,24.0
1979-03-07 13:52:08.070 ,5,1,0.,24.0,0.,24.0,4.,24.0,0.,24.0
1979-03-07 13:52:32.070 ,6,1,0.,24.0,0.,24.0,9.,24.0,0.,24.0
1979-03-07 13:52:56.070 ,7,1,5.,24.0,0.,24.0,6.,24.0,0.,24.0
1979-03-07 13:53:20.070 ,7,1,15.,24.0,0.,24.0,6.,24.0,0.,24.0
1979-03-07 13:53:44.070 ,6,1,5.,24.0,0.,24.0,6.,24.0,0.,24.0
1979-03-07 13:54:08.070 ,5,1,0.,24.0,0.,24.0,7.,24.0,0.,24.0
1979-03-07 13:54:32.070 ,4,1,0.,24.0,0.,24.0,6.,24.0,0.,24.0
1979-03-07 13:54:56.070 ,3,1,0.,24.0,0.,24.0,5.,24.0,0.,24.0
1979-03-07 13:55:20.070 ,2,1,0.,24.0,0.,24.0,3.,24.0,0.,24.0
1979-03-07 13:55:44.070 ,1,1,0.,24.0,0.,24.0,4.,24.0,0.,24.0
1979-03-07 13:56:08.070 ,0,1,0.,24.0,0.,24.0,3.,24.0,0.,24.0
1979-03-07 13:56:32.070 ,0,1,0.,24.0,0.,24.0,5.,24.0,0.,24.0
1979-03-07 13:56:56.070 ,1,1,0.,24.0,0.,24.0,6.,24.0,0.,24.0
1979-03-07 13:57:20.070 ,2,1,0.,24.0,0.,24.0,4.,24.0,0.,24.0
1979-03-07 13:57:44.070 ,3,1,0.,24.0,0.,24.0,2.,24.0,0.,24.0
1979-03-07 13:58:08.070 ,4,1,1.,24.0,0.,24.0,3.,24.0,0.,24.0
1979-03-07 13:58:32.070 ,5,1,0.,24.0,1.,24.0,6.,24.0,0.,24.0
1979-03-07 13:58:56.070 ,6,1,0.,24.0,0.,24.0,7.,24.0,0.,24.0
1979-03-07 13:59:20.070 ,7,1,3.,24.0,0.,24.0,13.,24.0,0.,24.0
1979-03-07 13:59:44.070 ,7,1,9.,24.0,0.,24.0,8.,24.0,0.,24.0
1979-03-07 14:00:08.070 ,6,1,9.,24.0,0.,24.0,6.,24.0,0.,24.0
1979-03-07 14:00:32.070 ,5,1,0.,24.0,0.,24.0,10.,24.0,0.,24.0
1979-03-07 14:00:56.070 ,4,1,0.,24.0,0.,24.0,4.,24.0,0.,24.0
1979-03-07 14:01:20.070 ,3,1,0.,24.0,0.,24.0,4.,24.0,0.,24.0
1979-03-07 14:01:44.070 ,2,1,0.,24.0,0.,24.0,3.,24.0,0.,24.0
1979-03-07 14:02:08.070 ,1,1,0.,24.0,0.,24.0,2.,24.0,0.,24.0
1979-03-07 14:02:32.070 ,0,1,0.,24.0,0.,24.0,4.,24.0,0.,24.0
1979-03-07 14:02:56.070 ,0,1,0.,24.0,0.,24.0,6.,24.0,0.,24.0
1979-03-07 14:03:20.070 ,1,1,0.,24.0,0.,24.0,4.,24.0,0.,24.0
1979-03-07 14:03:44.070 ,2,1,0.,24.0,0.,24.0,4.,24.0,0.,24.0
1979-03-07 14:04:08.070 ,3,1,2.,24.0,0.,24.0,4.,24.0,0.,24.0
1979-03-07 14:04:32.070 ,4,1,0.,24.0,0.,24.0,1.,24.0,0.,24.0
1979-03-07 14:04:56.070 ,5,1,0.,24.0,0.,24.0,5.,24.0,0.,24.0
1979-03-07 14:05:20.070 ,6,1,0.,24.0,0.,24.0,3.,24.0,0.,24.0
1979-03-07 14:05:44.070 ,7,1,2.,24.0,0.,24.0,7.,24.0,0.,24.0
1979-03-07 14:06:08.070 ,7,1,8.,24.0,0.,24.0,2.,24.0,0.,24.0
1979-03-07 14:06:32.070 ,6,1,5.,24.0,0.,24.0,2.,24.0,0.,24.0
1979-03-07 14:06:56.070 ,5,1,0.,24.0,0.,24.0,3.,24.0,0.,24.0
1979-03-07 14:07:20.070 ,4,1,0.,24.0,0.,24.0,7.,24.0,0.,24.0
1979-03-07 14:07:44.070 ,3,1,0.,24.0,0.,24.0,3.,24.0,0.,24.0
1979-03-07 14:08:08.070 ,2,1,0.,24.0,0.,24.0,2.,24.0,0.,24.0
1979-03-07 14:08:32.070 ,1,1,0.,24.0,0.,24.0,2.,24.0,0.,24.0
1979-03-07 14:08:56.070 ,0,1,0.,24.0,0.,24.0,2.,24.0,0.,24.0
1979-03-07 14:09:20.070 ,0,1,0.,24.0,0.,24.0,1.,24.0,0.,24.0
1979-03-07 14:09:44.070 ,1,1,0.,24.0,0.,24.0,2.,24.0,0.,24.0
1979-03-07 14:10:08.070 ,2,1,0.,24.0,0.,24.0,3.,24.0,0.,24.0
1979-03-07 14:10:32.070 ,3,1,0.,24.0,0.,24.0,7.,24.0,0.,24.0
1979-03-07 14:10:56.070 ,4,1,0.,24.0,0.,24.0,1.,24.0,0.,24.0
1979-03-07 14:11:20.070 ,5,1,0.,24.0,0.,24.0,3.,24.0,0.,24.0
1979-03-07 14:11:44.070 ,6,1,0.,24.0,0.,24.0,3.,24.0,0.,24.0
1979-03-07 14:12:08.070 ,7,1,3.,24.0,0.,24.0,4.,24.0,0.,24.0
1979-03-07 14:12:32.070 ,7,1,14.,24.0,0.,24.0,1.,24.0,0.,24.0
1979-03-07 14:12:56.070 ,6,1,10.,24.0,0.,24.0,2.,24.0,0.,24.0
1979-03-07 14:13:20.070 ,5,1,0.,24.0,0.,24.0,4.,24.0,0.,24.0
1979-03-07 14:13:44.070 ,4,1,0.,24.0,0.,24.0,4.,24.0,0.,24.0
1979-03-07 14:14:08.070 ,3,1,0.,24.0,0.,24.0,2.,24.0,0.,24.0
1979-03-07 14:14:32.070 ,2,1,0.,24.0,0.,24.0,0.,24.0,0.,24.0
1979-03-07 14:14:56.070 ,1,1,0.,24.0,0.,24.0,5.,24.0,0.,24.0
1979-03-07 14:15:20.070 ,0,1,0.,24.0,0.,24.0,6.,24.0,0.,24.0
1979-03-07 14:15:44.070 ,0,1,0.,24.0,0.,24.0,0.,24.0,0.,24.0
1979-03-07 14:16:08.080 ,1,1,0.,24.0,0.,24.0,4.,24.0,0.,24.0
1979-03-07 14:16:32.080 ,2,1,0.,24.0,0.,24.0,2.,24.0,0.,24.0
1979-03-07 14:16:56.080 ,3,1,0.,24.0,0.,24.0,3.,24.0,0.,24.0
1979-03-07 14:17:20.080 ,4,1,0.,24.0,0.,24.0,5.,24.0,0.,24.0
1979-03-07 14:17:44.080 ,5,1,0.,24.0,0.,24.0,3.,24.0,0.,24.0
1979-03-07 14:18:08.080 ,6,1,0.,24.0,0.,24.0,3.,24.0,0.,24.0
1979-03-07 14:18:32.080 ,7,1,0.,24.0,0.,24.0,4.,24.0,0.,24.0
1979-03-07 14:18:56.080 ,7,1,4.,24.0,0.,24.0,1.,24.0,0.,24.0
1979-03-07 14:19:20.080 ,6,1,5.,24.0,0.,24.0,6.,24.0,0.,24.0
1979-03-07 14:19:44.080 ,5,1,0.,24.0,0.,24.0,1.,24.0,0.,24.0
1979-03-07 14:20:08.080 ,4,1,0.,24.0,0.,24.0,1.,24.0,0.,24.0
1979-03-07 14:20:32.080 ,3,1,0.,24.0,0.,24.0,3.,24.0,0.,24.0
1979-03-07 14:20:56.080 ,2,1,0.,24.0,0.,24.0,4.,24.0,0.,24.0
1979-03-07 14:21:20.080 ,1,1,0.,24.0,0.,24.0,2.,24.0,0.,24.0
1979-03-07 14:21:44.080 ,0,1,0.,24.0,0.,24.0,2.,24.0,0.,24.0
1979-03-07 14:22:08.080 ,0,1,0.,24.0,0.,24.0,1.,24.0,0.,24.0
1979-03-07 14:22:32.080 ,0,0,0.,24.0,0.,24.0,8.,24.0,0.,24.0
1979-03-07 14:22:56.080 ,0,1,0.,24.0,0.,24.0,3.,24.0,0.,24.0
1979-03-07 14:23:20.080 ,0,0,0.,24.0,0.,24.0,1.,24.0,0.,24.0
1979-03-07 14:23:44.080 ,4,1,0.,24.0,0.,24.0,1.,24.0,0.,24.0
1979-03-07 14:24:08.080 ,5,1,0.,24.0,0.,24.0,1.,24.0,0.,24.0
1979-03-07 14:24:32.080 ,6,1,0.,24.0,0.,24.0,3.,24.0,0.,24.0
1979-03-07 14:24:56.080 ,7,1,3.,24.0,0.,24.0,5.,24.0,0.,24.0
1979-03-07 14:25:20.080 ,7,1,13.,24.0,0.,24.0,3.,24.0,0.,24.0
1979-03-07 14:25:44.080 ,6,1,10.,24.0,0.,24.0,2.,24.0,0.,24.0
1979-03-07 14:26:08.080 ,5,1,0.,24.0,0.,24.0,6.,24.0,0.,24.0
1979-03-07 14:26:32.080 ,4,1,0.,24.0,0.,24.0,5.,24.0,0.,24.0
1979-03-07 14:26:56.080 ,3,1,0.,24.0,0.,24.0,6.,24.0,0.,24.0
1979-03-07 14:27:20.080 ,2,1,0.,24.0,1.,24.0,3.,24.0,0.,24.0
1979-03-07 14:27:44.080 ,1,1,0.,24.0,0.,24.0,1.,24.0,0.,24.0
1979-03-07 14:28:08.080 ,0,1,0.,24.0,0.,24.0,1.,24.0,0.,24.0
1979-03-07 14:28:32.080 ,0,1,0.,24.0,0.,24.0,1.,24.0,0.,24.0
1979-03-07 14:28:56.080 ,1,1,0.,24.0,0.,24.0,1.,24.0,0.,24.0
1979-03-07 14:29:20.080 ,2,1,0.,24.0,0.,24.0,2.,24.0,0.,24.0
1979-03-07 14:29:44.080 ,0,0,0.,24.0,0.,24.0,1.,24.0,0.,24.0
1979-03-07 14:30:08.080 ,4,1,0.,24.0,0.,24.0,0.,24.0,0.,24.0
1979-03-07 14:30:32.080 ,5,1,0.,24.0,0.,24.0,2.,24.0,0.,24.0
1979-03-07 14:30:56.080 ,6,1,0.,24.0,0.,24.0,1.,24.0,0.,24.0
1979-03-07 14:31:20.080 ,7,1,3.,24.0,0.,24.0,3.,24.0,0.,24.0
1979-03-07 14:31:44.080 ,7,1,7.,24.0,0.,24.0,0.,24.0,0.,24.0
1979-03-07 14:32:08.080 ,6,1,8.,24.0,0.,24.0,2.,24.0,0.,24.0
1979-03-07 14:32:32.080 ,5,1,0.,24.0,0.,24.0,1.,24.0,0.,24.0
1979-03-07 14:32:56.080 ,4,1,0.,24.0,0.,24.0,0.,24.0,0.,24.0
1979-03-07 14:33:20.080 ,3,1,0.,24.0,0.,24.0,1.,24.0,0.,24.0